Regional Weather Roundup
Issued by NWS New Orleans/Baton Rouge, LA

Home | Current Version | Previous Version | Text Only | Print | Product List | Glossary On
Versions: 1 2 3 4 5 6 7 8 9 10 11 12 13 14 15 16 17 18 19 20 21 22 23 24 25 26 27 28 29 30 31 32 33 34 35 36 37 38 39 40 41 42 43 44 45 46 47 48 49 50
000
ASUS44 KLIX 290311
RWRLIX
NEW ORLEANS REGIONAL WEATHER ROUNDUP
NATIONAL WEATHER SERVICE NEW ORLEANS LA
1000 PM CDT WED SEP 28 2016

NOTE: "FAIR" INDICATES FEW OR NO CLOUDS BELOW 12,000 FEET WITH NO
      SIGNIFICANT WEATHER AND/OR OBSTRUCTIONS TO VISIBILITY.
      SKY/WX - SKY CONDITION AND SIGNIFICANT WEATHER.
      TMP - AIR TEMPERATURE.     DP    - DEWPOINT TEMPERATURE.
      RH  - RELATIVE HUMIDITY.   PRES  - PRESSURE.
      HI  - HEAT INDEX.          WCI   - WIND CHILL INDEX.

*  THESE STATIONS ARE NOT NWS OR FAA STATIONS AND ARE NOT UNDER
   NWS QUALITY CONTROL.

LAZ038-040-048-061>063-065>067-069-290400-
SOUTHEAST LOUISIANA

CITY           SKY/WX    TMP DP  RH WIND       PRES   REMARKS
N.O. AUDUBON   NOT AVBL
N.O. INTL ARPT PTCLDY    81  70  69 W3        30.00S
N.O. LAKEFRONT CLEAR     84  70  62 W14       30.00R
N.O. DOWNTOWN*   N/A     83  69  62 VRB3      30.01R
RESERVE*         N/A     75  73  92 CALM      30.01R
SLIDELL        CLEAR     74  70  87 CALM      29.99S
BATON ROUGE    CLEAR     74  69  85 W3        30.01R
BOOTHVILLE     PTCLDY    80  74  81 W3        30.00S
BELLE CHASSE   PTCLDY    75  70  84 W3        30.00R
BOGALUSA*        N/A     73  68  86 CALM      30.02R
GALLIANO*      CLEAR    N/A N/A N/A W5        30.01R
NEW ROADS*       N/A     71  67  89 MISG      30.02R
GONZALES*        N/A     72  71  95 CALM      30.00S
HAMMOND*       CLEAR     72  66  83 CALM      30.01R
HOUMA*         CLEAR     74  72  92 CALM      30.02R
PORT FOURCHON* CLEAR     82  70  65 W8        30.01S

$$

MSZ070-080>082-290400-
SOUTHERN MISSISSIPPI

CITY           SKY/WX    TMP DP  RH WIND       PRES   REMARKS
MCCOMB         CLEAR     69  65  86 CALM      30.02R
GULFPORT       CLEAR     75  70  84 NW3       29.98R
BILOXI         CLEAR     78  72  79 VRB1      29.98S
PASCAGOULA     CLEAR     71  71 100 CALM      29.99R

$$

COASTAL OBSERVATIONS
LAKE AND NEARSHORE STATIONS

STATION/POSITION TIME  TEMP    WIND        PRES    WAVE
                       AIR SEA DIR/SP/G            HT/PER
                 (UTC) (F)     (DEG/KT/KT) (MB)    (FT/S)
PASCAGOULA       0200   84     260/ 10/ 13 1014.6
WAVELAND YACHT   0200   79 85  280/  4/  5 1015.5
GRAND ISLE       0200   85 89  300/ 11/ 12 1016.0
SOUTHWEST PASS   0200          280/ 11/ 14   N/A
NEW CANAL        0200   84 87  240/  4/  7 1015.0
SHELL BEACH      0200   83 87  260/  5/  6 1015.6

OFFSHORE STATIONS

STATION/POSITION TIME  TEMP    WIND        PRES    WAVE
                       AIR SEA DIR/SP/G            HT/PER
                 (UTC) (F)     (DEG/KT/KT) (MB)    (FT/S)
64 S DAUPHIN ISL 0200   83 86  260/  8/ 10 1015.5

$$




USA.gov is the U.S. government's official web portal to all federal, state and local government web resources and services.